Zurück zum Katalog

COSMOS 2251 DEB

AktivLEO
NORAD 33791·DEBRIS·🇷🇺 Russia

Gestartet Jun 16, 1993 von Plesetsk Cosmodrome

Loading…

Nächste Überflüge (nächste 24 Stunden)

TLE

AktuellSource: Space-Track

Epoche: Sep 14, 2026, 02:34 UTC

1 33791U 93036AG  26257.10733939  .00001729  00000-0  50822-3 0  9990
2 33791  74.1709 249.9284 0028579 357.1020  77.5526 14.44250560920262

Verfolge COSMOS 2251 DEB in Echtzeit mit AllMySat

Download on the App Store